sat.trackr.live / text

‹ back to catalog

STARLINK-34334

NORAD 64273 · 2025-120T

PAYLOAD ACTIVE UNKNOWN

§ Identity

Operator
Country
US
Launch date
2025-06-04
Launch site
AFWTR
Launch vehicle
Mass (kg)
RCS (m²)

Purposes: comms

External: N2YO · Heavens-Above · Gunter

§ Orbital elements

Epoch: 2026-09-19T08:51:54.082944Z

Period
93.85 min
Inclination
53.1578°
Eccentricity
0.0001268
Mean motion
15.34406138 rev/d
Perigee alt
461.8 km
Apogee alt
463.6 km
Semi-major
6,840.8 km
B*
6.0393e-4
RAAN
294.6426°
Arg perigee
91.4259°
Mean anomaly
268.6888°
Rev number
7,360

§ Raw data

STARLINK-343341 64273U 25120T   26262.36937596  .00020087  00000+0  60393-3 0  99982 64273  53.1578 294.6426 0001268  91.4259 268.6888 15.34406138 73600

JSON: /api/v1/satellites/64273 · /tle

For live sub-satellite position, see the globe view (requires WebGL).

§ Visibility from observer

Set your observer location to see the next 7 days of passes ≥ 10°. The values pass through the URL so the page stays shareable.

No JS? Fill the form by hand. The geolocation button needs JavaScript.